Parsons, KS

3:16 AM CDT on May 21, 2018 (GMT -0500)
Tri-City

Weather History for KPPF - October, 2012

Change the Weather History Date:

Wednesday, October 3, 2012

  Actual Average Record
Temperature  
Mean Temperature 62 °F -  
Max Temperature 80 °F 77 °F 95 °F (2006)
Min Temperature 44 °F 52 °F 34 °F (1985)
Degree Days  
Heating Degree Days 3    
Growing Degree Days 12 (Base 50)    
Moisture  
Dew Point 46 °F    
Average Humidity 62    
Maximum Humidity 93    
Minimum Humidity 31    
Precipitation  
Precipitation 0.00 in - - ()
Sea Level Pressure  
Sea Level Pressure 29.95 in    
Wind  
Wind Speed 3 mph (South)    
Max Wind Speed 14 mph    
Max Gust Speed 21 mph    
Visibility 10 miles    
Events      
Averages and records for this station are not official NWS values.
T = Trace of Precipitation, MM = Missing Value Source: NWS Daily Summary

Daily Weather History Graph

Daily Weather History Graph

Search for Another Location

Airport or City:

Astronomy

Oct. 03, 2012 Rise Set
Actual Time 7:19 AM CDT 7:01 PM CDT
Civil Twilight 6:53 AM CDT 7:27 PM CDT
Nautical Twilight 6:23 AM CDT 7:57 PM CDT
Astronomical Twilight 5:53 AM CDT 8:27 PM CDT
Moon 8:59 PM CDT (10/3) 10:38 AM CDT (10/3)
Length of Visible Light 12h 33m
Length of Day
11h 41m
Waning Gibbous, 88% of the Moon is Illuminated
Oct 3
Waning Gibbous
Oct 8
Last Quarter
Oct 15
New
Oct 21
First Quarter
Oct 29
Full

Hourly Weather History & Observations

Time (CDT) Temp. Dew Point Humidity Pressure Visibility Wind Dir Wind Speed Gust Speed Precip Events Conditions
12:52 AM 46.0 °F 44.1 °F 93% 29.94 in 10.0 mi Calm Calm - N/A   Clear
1:52 AM 45.0 °F 43.0 °F 93% 29.94 in 10.0 mi Calm Calm - N/A   Clear
2:52 AM 45.0 °F 43.0 °F 93% 29.94 in 10.0 mi Calm Calm - N/A   Clear
3:52 AM 44.1 °F 42.1 °F 93% 29.94 in 10.0 mi Calm Calm - N/A   Clear
4:52 AM 45.0 °F 42.1 °F 90% 29.95 in 10.0 mi Calm Calm - N/A   Clear
5:52 AM 44.1 °F 41.0 °F 89% 29.96 in 10.0 mi Calm Calm - N/A   Clear
6:52 AM 44.1 °F 41.0 °F 89% 29.97 in 10.0 mi Calm Calm - N/A   Clear
7:52 AM 44.1 °F 41.0 °F 89% 29.98 in 10.0 mi Calm Calm - N/A   Clear
8:52 AM 55.9 °F 51.1 °F 84% 29.99 in 10.0 mi Calm Calm - N/A   Clear
9:52 AM 64.0 °F 51.1 °F 63% 30.00 in 10.0 mi SSW 5.8 mph - N/A   Clear
10:52 AM 70.0 °F 50.0 °F 49% 30.00 in 10.0 mi South 5.8 mph - N/A   Clear
11:52 AM 75.0 °F 46.9 °F 37% 29.99 in 10.0 mi SSW 5.8 mph - N/A   Clear
12:52 PM 77.0 °F 44.1 °F 31% 29.97 in 10.0 mi SSW 11.5 mph - N/A   Clear
1:52 PM 78.1 °F 46.9 °F 33% 29.94 in 10.0 mi SSW 10.4 mph 19.6 mph N/A   Scattered Clouds
2:52 PM 79.0 °F 46.0 °F 31% 29.92 in 10.0 mi South 10.4 mph 18.4 mph N/A   Clear
3:52 PM 80.1 °F 46.9 °F 31% 29.91 in 10.0 mi SSW 13.8 mph 20.7 mph N/A   Clear
4:52 PM 79.0 °F 46.0 °F 31% 29.91 in 10.0 mi South 9.2 mph - N/A   Clear
5:52 PM 77.0 °F 48.0 °F 36% 29.91 in 10.0 mi South 8.1 mph 17.3 mph N/A   Clear
6:52 PM 73.0 °F 48.9 °F 42% 29.92 in 10.0 mi SSE 5.8 mph - N/A   Clear
7:52 PM 68.0 °F 50.0 °F 52% 29.94 in 10.0 mi SSE 4.6 mph - N/A   Clear
8:52 PM 66.0 °F 50.0 °F 56% 29.96 in 10.0 mi SSE 4.6 mph - N/A   Clear
10:52 PM 64.9 °F 48.9 °F 56% 29.97 in 10.0 mi SSE 4.6 mph - N/A   Clear
11:52 PM 64.0 °F 51.1 °F 63% 29.97 in 10.0 mi South 6.9 mph - N/A   Clear